Showing default

BRO-14, 60551

Orbit data source: Space-Track

BRO-14, 60551 is a payload satellite owned by Unseen Labs (FR) in SSO that was launched on Fri, 16 Aug 2024 UTC via an FALCON 9 launch vehicle from the Air Force Western Test Range (AFWTR). Payload-class satellites include a variety of spacecraft equipped with specific instruments for various scientific and technological missions. These include communications satellites like Starlink; space stations such as the ISS; scientific satellites like the Hubble; Earth observation satellites from companies like Planet Labs, Umbra, and HawkEye 360; GPS; miniature CubeSats for education and research; and military/defense satellites.

Loading next visibility...
Identifier
60551, 2024-149CM
Orbit
SSO
Country
Flag of FRFR
Related business
Manufacturer
GOMSpace
Mission
Operational Commercial Sigint
Bus & Motor
CUBESAT 8U, Unknown motor
Mass
15 kg wet, ~15 kg dry
Launch date (UTC)
2024-08-16 (2 years ago)
Launch vehicle
FALCON 9
Launch site
Air Force Western Test Range (AFWTR)
Object type
Payload
Rocket body
Debris
Shape & HBR
Box, 0.2 m
Radar Cross Section
0.100 m², Medium (>0.1 m² and < 1m²)

Expand to show TLE details & history
Last TLE update: 23 hours ago

TLE from 23 hours ago
0 BRO-14
1 60551U 24149CM  26175.15067264  .00001342  00000-0  12409-3 0  9998
2 60551  97.6871 250.8032 0008133  79.1431 281.0705 14.96189607101036
Epoch: 2026-06-24T03:36Z
TLE epoch observation values (Epoch: 2026-06-24T03:36:58.116Z)
Latitude
-0.00003°
Longitude
-75.75096°
Altitude
580.65 km
Speed
7.571 km/s
True Right ascension
16h 43m 12s
True Declination
0° 00' 00"
Sunlit
Object was in full shadow at epoch
Visualization orbit readout
Latitude
Unknown
Longitude
Unknown
Altitude
Unknown
Speed
Unknown
Apparent Right ascension
Unknown
Apparent Declination
Unknown
Sunlit
N/A
Visualization observer readout
Local Sidereal Time
13:19:53
Azimuth
Unknown
Elevation
Unknown
Doppler factor
Unknown
Orbital elements
Apogee altitude
581.348 km
Perigee altitude
570.037 km
Semi-major axis
6,953.83 km
Eccentricity
0.00081
Inclination
97.6871°
RAAN
250.8032°
Arg. of periapsis
79.1431°
True anomaly
280.97902°
Mean anomaly
281.0705°
Eccentric anomaly
281.02476°
Mean motion
3.74289 °/min
Orbital period
96.18 mins
BSTAR
0.00012409
Loading maneuver chart data...
Computing Atmospheric mass density...
Loading historical data...
Loading historical data...
Loading historical data...
Loading historical data...
Loading historical data...
Loading historical data...
Loading historical data...

Documentation

Showing up to 5 results
|